Time,TemperatureF,DewpointF,PressureIn,WindDirection,WindDirectionDegrees,WindSpeedMPH,WindSpeedGustMPH,Humidity,HourlyPrecipIn,Conditions,Clouds,dailyrainin,SoftwareType,DateUTC
2014-01-10 00:03:00,24.6,21.6,29.49,NW,315,0.0,-999.0,88,-99.99,,,0.00,Acu-Link.com,2014-01-10 05:03:00,
2014-01-10 00:18:00,24.1,21.1,29.47,ENE,67,0.0,-999.0,88,-99.99,,,0.00,Acu-Link.com,2014-01-10 05:18:00,
2014-01-10 00:33:00,23.4,20.6,29.46,NE,45,0.0,-999.0,89,-99.99,,,0.00,Acu-Link.com,2014-01-10 05:33:00,
2014-01-10 00:48:00,23.2,20.7,29.45,ENE,67,0.0,-999.0,90,-99.99,,,0.00,Acu-Link.com,2014-01-10 05:48:00,
2014-01-10 01:04:00,23.2,20.7,29.45,NE,45,0.0,-999.0,90,-99.99,,,0.00,Acu-Link.com,2014-01-10 06:04:00,
2014-01-10 01:19:00,23.2,20.7,29.44,East,90,0.0,-999.0,90,-99.99,,,0.00,Acu-Link.com,2014-01-10 06:19:00,
2014-01-10 01:34:00,23.4,20.9,29.44,East,90,0.0,-999.0,90,-99.99,,,0.00,Acu-Link.com,2014-01-10 06:34:00,
2014-01-10 01:50:00,23.7,21.2,29.43,NNE,22,0.0,-999.0,90,-99.99,,,0.00,Acu-Link.com,2014-01-10 06:50:00,
2014-01-10 02:05:00,23.9,21.4,29.43,NE,45,0.0,-999.0,90,-99.99,,,0.00,Acu-Link.com,2014-01-10 07:05:00,
2014-01-10 02:20:00,23.9,21.4,29.44,NE,45,1.7,-999.0,90,-99.99,,,0.00,Acu-Link.com,2014-01-10 07:20:00,
2014-01-10 02:36:00,24.4,21.9,29.44,NNE,22,2.2,-999.0,90,-99.99,,,0.00,Acu-Link.com,2014-01-10 07:36:00,
2014-01-10 02:51:00,25.0,22.5,29.43,NE,45,2.7,-999.0,90,-99.99,,,0.00,Acu-Link.com,2014-01-10 07:51:00,
2014-01-10 03:06:00,25.5,22.7,29.43,ESE,112,0.0,-999.0,89,-99.99,,,0.00,Acu-Link.com,2014-01-10 08:06:00,
2014-01-10 03:21:00,26.1,23.3,29.43,ENE,67,0.0,-999.0,89,-99.99,,,0.00,Acu-Link.com,2014-01-10 08:21:00,
2014-01-10 03:37:00,26.8,24.0,29.42,ENE,67,0.0,-999.0,89,-99.99,,,0.00,Acu-Link.com,2014-01-10 08:37:00,
2014-01-10 03:52:00,27.1,24.3,29.41,ESE,112,0.0,-999.0,89,-99.99,,,0.00,Acu-Link.com,2014-01-10 08:52:00,
2014-01-10 04:07:00,27.5,24.7,29.40,NNE,22,0.0,-999.0,89,-99.99,,,0.00,Acu-Link.com,2014-01-10 09:07:00,
2014-01-10 04:23:00,27.9,25.1,29.39,NE,45,2.2,-999.0,89,-99.99,,,0.00,Acu-Link.com,2014-01-10 09:23:00,
2014-01-10 04:38:00,28.0,25.2,29.38,NE,45,3.2,-999.0,89,-99.99,,,0.00,Acu-Link.com,2014-01-10 09:38:00,
2014-01-10 04:53:00,28.2,25.4,29.38,NE,45,1.7,-999.0,89,-99.99,,,0.00,Acu-Link.com,2014-01-10 09:53:00,
2014-01-10 05:09:00,28.6,25.8,29.38,NNE,22,0.0,-999.0,89,-99.99,,,0.00,Acu-Link.com,2014-01-10 10:09:00,
2014-01-10 05:24:00,28.9,26.1,29.38,NE,45,0.0,-999.0,89,-99.99,,,0.00,Acu-Link.com,2014-01-10 10:24:00,
2014-01-10 05:39:00,29.1,26.3,29.37,ENE,67,2.7,-999.0,89,-99.99,,,0.00,Acu-Link.com,2014-01-10 10:39:00,
2014-01-10 05:54:00,29.5,26.7,29.37,NE,45,2.7,-999.0,89,-99.99,,,0.00,Acu-Link.com,2014-01-10 10:54:00,
2014-01-10 06:10:00,30.0,27.2,29.36,NE,45,2.2,-999.0,89,-99.99,,,0.00,Acu-Link.com,2014-01-10 11:10:00,
2014-01-10 06:25:00,30.4,27.6,29.36,NE,45,3.2,-999.0,89,-99.99,,,0.00,Acu-Link.com,2014-01-10 11:25:00,
2014-01-10 06:40:00,30.6,27.5,29.37,NE,45,3.2,-999.0,88,-99.99,,,0.00,Acu-Link.com,2014-01-10 11:40:00,
2014-01-10 06:55:00,30.6,27.5,29.37,NE,45,4.7,-999.0,88,-99.99,,,0.00,Acu-Link.com,2014-01-10 11:55:00,
2014-01-10 07:10:00,30.6,27.8,29.37,NE,45,2.7,-999.0,89,-99.99,,,0.00,Acu-Link.com,2014-01-10 12:10:00,
2014-01-10 07:26:00,30.7,28.1,29.35,NNE,22,2.7,-999.0,90,-99.99,,,0.00,Acu-Link.com,2014-01-10 12:26:00,
2014-01-10 07:41:00,30.7,28.4,29.35,NE,45,3.2,-999.0,91,-99.99,,,0.00,Acu-Link.com,2014-01-10 12:41:00,
2014-01-10 07:56:00,30.7,28.4,29.35,NE,45,2.7,-999.0,91,-99.99,,,0.00,Acu-Link.com,2014-01-10 12:56:00,
2014-01-10 08:11:00,30.9,28.6,29.36,NNE,22,2.2,-999.0,91,-99.99,,,0.00,Acu-Link.com,2014-01-10 13:11:00,
2014-01-10 08:26:00,31.3,29.3,29.37,NNE,22,1.7,-999.0,92,-99.99,,,0.00,Acu-Link.com,2014-01-10 13:26:00,
2014-01-10 08:41:00,31.6,29.5,29.36,NE,45,2.2,-999.0,92,-99.99,,,0.00,Acu-Link.com,2014-01-10 13:41:00,
2014-01-10 08:56:00,32.0,30.2,29.36,NE,45,1.7,-999.0,93,-99.99,,,0.01,Acu-Link.com,2014-01-10 13:56:00,
2014-01-10 09:12:00,32.4,30.9,29.36,NE,45,2.7,-999.0,94,-99.99,,,0.02,Acu-Link.com,2014-01-10 14:12:00,
2014-01-10 09:27:00,32.9,31.4,29.36,ENE,67,2.2,-999.0,94,-99.99,,,0.02,Acu-Link.com,2014-01-10 14:27:00,
2014-01-10 09:42:00,33.1,31.8,29.37,NNE,22,2.2,-999.0,95,-99.99,,,0.02,Acu-Link.com,2014-01-10 14:42:00,
2014-01-10 09:57:00,33.4,32.1,29.37,NE,45,1.7,-999.0,95,-99.99,,,0.03,Acu-Link.com,2014-01-10 14:57:00,
2014-01-10 10:13:00,33.8,32.5,29.36,NE,45,2.7,-999.0,95,-99.99,,,0.05,Acu-Link.com,2014-01-10 15:13:00,
2014-01-10 10:28:00,34.2,33.2,29.36,NE,45,0.0,-999.0,96,-99.99,,,0.07,Acu-Link.com,2014-01-10 15:28:00,
2014-01-10 10:43:00,34.5,33.5,29.35,ENE,67,0.0,-999.0,96,-99.99,,,0.08,Acu-Link.com,2014-01-10 15:43:00,
2014-01-10 10:59:00,35.4,34.4,29.35,NE,45,0.0,-999.0,96,-99.99,,,0.10,Acu-Link.com,2014-01-10 15:59:00,
2014-01-10 11:14:00,36.7,35.7,29.33,NNE,22,0.0,-999.0,96,-99.99,,,0.11,Acu-Link.com,2014-01-10 16:14:00,
2014-01-10 11:29:00,37.9,36.9,29.33,East,90,0.0,-999.0,96,-99.99,,,0.14,Acu-Link.com,2014-01-10 16:29:00,
2014-01-10 11:44:00,38.7,37.9,29.31,ESE,112,0.0,-999.0,97,-99.99,,,0.14,Acu-Link.com,2014-01-10 16:44:00,
2014-01-10 12:00:00,38.8,37.8,29.30,NE,45,0.0,-999.0,96,-99.99,,,0.16,Acu-Link.com,2014-01-10 17:00:00,
2014-01-10 12:15:00,39.4,38.4,29.29,ENE,67,0.0,-999.0,96,-99.99,,,0.18,Acu-Link.com,2014-01-10 17:15:00,
2014-01-10 12:30:00,40.5,39.2,29.27,NNE,22,0.0,-999.0,95,-99.99,,,0.19,Acu-Link.com,2014-01-10 17:30:00,
2014-01-10 12:46:00,41.2,39.9,29.26,SE,135,0.0,-999.0,95,-99.99,,,0.19,Acu-Link.com,2014-01-10 17:46:00,
2014-01-10 13:01:00,41.7,39.8,29.25,ESE,112,0.0,-999.0,93,-99.99,,,0.20,Acu-Link.com,2014-01-10 18:01:00,
2014-01-10 13:16:00,43.0,41.4,29.26,ENE,67,0.0,-999.0,94,-99.99,,,0.20,Acu-Link.com,2014-01-10 18:16:00,
2014-01-10 13:32:00,43.2,41.3,29.25,SE,135,0.0,-999.0,93,-99.99,,,0.20,Acu-Link.com,2014-01-10 18:32:00,
2014-01-10 13:47:00,43.3,41.4,29.25,SSW,202,1.7,-999.0,93,-99.99,,,0.20,Acu-Link.com,2014-01-10 18:47:00,
2014-01-10 14:02:00,43.0,40.8,29.25,SSW,202,0.0,-999.0,92,-99.99,,,0.20,Acu-Link.com,2014-01-10 19:02:00,
2014-01-10 14:18:00,43.7,41.8,29.25,SSW,202,0.0,-999.0,93,-99.99,,,0.20,Acu-Link.com,2014-01-10 19:18:00,
2014-01-10 14:33:00,44.1,42.2,29.25,West,270,0.0,-999.0,93,-99.99,,,0.20,Acu-Link.com,2014-01-10 19:33:00,
2014-01-10 14:48:00,43.7,41.8,29.24,ESE,112,0.0,-999.0,93,-99.99,,,0.21,Acu-Link.com,2014-01-10 19:48:00,
2014-01-10 15:04:00,43.9,42.0,29.24,SE,135,0.0,-999.0,93,-99.99,,,0.21,Acu-Link.com,2014-01-10 20:04:00,
2014-01-10 15:19:00,43.2,41.3,29.24,SE,135,0.0,-999.0,93,-99.99,,,0.22,Acu-Link.com,2014-01-10 20:19:00,
2014-01-10 15:34:00,43.0,41.1,29.24,SSE,157,0.0,-999.0,93,-99.99,,,0.22,Acu-Link.com,2014-01-10 20:34:00,
2014-01-10 15:49:00,42.6,41.0,29.24,ESE,112,0.0,-999.0,94,-99.99,,,0.22,Acu-Link.com,2014-01-10 20:49:00,
2014-01-10 16:05:00,42.6,41.0,29.23,South,180,0.0,-999.0,94,-99.99,,,0.23,Acu-Link.com,2014-01-10 21:05:00,
2014-01-10 16:20:00,42.4,41.1,29.22,East,90,0.0,-999.0,95,-99.99,,,0.23,Acu-Link.com,2014-01-10 21:20:00,
2014-01-10 16:35:00,41.7,40.4,29.22,NE,45,0.0,-999.0,95,-99.99,,,0.23,Acu-Link.com,2014-01-10 21:35:00,
2014-01-10 16:51:00,41.2,39.9,29.22,SSW,202,0.0,-999.0,95,-99.99,,,0.23,Acu-Link.com,2014-01-10 21:51:00,
2014-01-10 17:06:00,40.8,39.5,29.21,NNE,22,0.0,-999.0,95,-99.99,,,0.24,Acu-Link.com,2014-01-10 22:06:00,
2014-01-10 17:21:00,40.6,39.6,29.21,South,180,0.0,-999.0,96,-99.99,,,0.24,Acu-Link.com,2014-01-10 22:21:00,
2014-01-10 17:37:00,40.5,39.5,29.21,ENE,67,0.0,-999.0,96,-99.99,,,0.24,Acu-Link.com,2014-01-10 22:37:00,
2014-01-10 17:52:00,40.3,39.3,29.21,ESE,112,0.0,-999.0,96,-99.99,,,0.24,Acu-Link.com,2014-01-10 22:52:00,
2014-01-10 18:07:00,40.1,39.3,29.20,ESE,112,0.0,-999.0,97,-99.99,,,0.28,Acu-Link.com,2014-01-10 23:07:00,
2014-01-10 18:22:00,40.1,39.3,29.20,East,90,0.0,-999.0,97,-99.99,,,0.28,Acu-Link.com,2014-01-10 23:22:00,
2014-01-10 18:38:00,40.1,39.3,29.20,ESE,112,1.7,-999.0,97,-99.99,,,0.28,Acu-Link.com,2014-01-10 23:38:00,
2014-01-10 18:53:00,39.9,39.1,29.20,East,90,0.0,-999.0,97,-99.99,,,0.28,Acu-Link.com,2014-01-10 23:53:00,
2014-01-10 19:08:00,39.7,39.2,29.19,East,90,0.0,-999.0,98,-99.99,,,0.28,Acu-Link.com,2014-01-11 00:08:00,
2014-01-10 19:24:00,39.4,38.9,29.20,NE,45,0.0,-999.0,98,-99.99,,,0.28,Acu-Link.com,2014-01-11 00:24:00,
2014-01-10 19:39:00,39.2,38.7,29.19,NE,45,2.7,-999.0,98,-99.99,,,0.28,Acu-Link.com,2014-01-11 00:39:00,
2014-01-10 19:54:00,39.2,38.7,29.19,NE,45,0.0,-999.0,98,-99.99,,,0.29,Acu-Link.com,2014-01-11 00:54:00,
2014-01-10 20:10:00,39.0,38.5,29.18,SE,135,0.0,-999.0,98,-99.99,,,0.29,Acu-Link.com,2014-01-11 01:10:00,
2014-01-10 20:25:00,39.0,38.5,29.17,NE,45,0.0,-999.0,98,-99.99,,,0.30,Acu-Link.com,2014-01-11 01:25:00,
2014-01-10 20:40:00,39.2,38.7,29.17,ENE,67,1.1,-999.0,98,-99.99,,,0.30,Acu-Link.com,2014-01-11 01:40:00,
2014-01-10 20:55:00,39.4,38.9,29.17,SSE,157,0.0,-999.0,98,-99.99,,,0.30,Acu-Link.com,2014-01-11 01:55:00,
2014-01-10 21:10:00,39.7,39.2,29.15,SSW,202,0.0,-999.0,98,-99.99,,,0.30,Acu-Link.com,2014-01-11 02:10:00,
2014-01-10 21:26:00,39.7,39.2,29.15,NE,45,0.0,-999.0,98,-99.99,,,0.30,Acu-Link.com,2014-01-11 02:26:00,
2014-01-10 21:41:00,39.7,39.2,29.15,ENE,67,0.0,-999.0,98,-99.99,,,0.30,Acu-Link.com,2014-01-11 02:41:00,
2014-01-10 21:56:00,39.9,39.4,29.15,South,180,0.0,-999.0,98,-99.99,,,0.30,Acu-Link.com,2014-01-11 02:56:00,
2014-01-10 22:12:00,39.9,39.4,29.15,NE,45,0.0,-999.0,98,-99.99,,,0.32,Acu-Link.com,2014-01-11 03:12:00,
2014-01-10 22:27:00,39.9,39.4,29.14,ESE,112,0.0,-999.0,98,-99.99,,,0.32,Acu-Link.com,2014-01-11 03:27:00,
2014-01-10 22:42:00,42.1,41.8,29.13,South,180,0.0,-999.0,99,-99.99,,,0.32,Acu-Link.com,2014-01-11 03:42:00,
2014-01-10 22:58:00,44.2,43.9,29.12,SSE,157,2.2,-999.0,99,-99.99,,,0.33,Acu-Link.com,2014-01-11 03:58:00,
2014-01-10 23:13:00,45.0,44.7,29.11,South,180,2.2,-999.0,99,-99.99,,,0.33,Acu-Link.com,2014-01-11 04:13:00,
2014-01-10 23:28:00,45.9,45.6,29.10,WSW,247,1.7,-999.0,99,-99.99,,,0.33,Acu-Link.com,2014-01-11 04:28:00,
2014-01-10 23:44:00,46.0,45.7,29.09,SSW,202,2.7,-999.0,99,-99.99,,,0.33,Acu-Link.com,2014-01-11 04:44:00,
2014-01-10 23:59:00,46.2,45.9,29.08,SSW,202,3.7,-999.0,99,-99.99,,,0.33,Acu-Link.com,2014-01-11 04:59:00,